Location: ?????????
(38.5999°N, 22.7695°E)
Time: 09:17:00
(UTC+00:00)

PAYLOAD A - Pass Details

Date: 08 August 2024
Orbit: 690 x 831 km, 98.5° (Epoch: 08 September)

Event Time Altitude Azimuth Distance (km) Brightness Sun altitude
Rises 01:17:29 0° 27° (NNE) 3,221 8.5 -23.4°
Reaches altitude 10° 01:20:16 10° 41° (NE) 2,265 7.6 -23.0°
Maximum altitude 01:24:13 24° 94° (E) 1,496 5.9 -22.5°
Drops below altitude 10° 01:28:03 10° 148° (SSE) 2,187 6.2 -21.9°
Enters shadow 01:28:33 - 151° (SSE) 2,348 6.4 -21.9°
